This demonstration page uses our WeatherBlox Daily Observations layout. Learn more.

36.17497, -115.13722

Hourly Observations for January 29, 2018

Temp ( °F °C ) Dew Point ( °F °C ) Humidity (%) Winds ( mph kmh ) Pressure ( in mb ) Visibility ( mi km ) Precip ( " mm )
12:53 am 00:53 Clear 52 11.1 27 -2.8 38 38 NNW 3 6 30.44 1031 10 16.0934 0 0
1:53 am 01:53 Clear 54 12.2 26 -3.3 34 34 NNW 8 13 30.43 1031 10 16.0934 0 0
2:53 am 02:53 Clear 55 12.8 26 -3.3 33 33 N 12 19 30.42 1030 10 16.0934 0 0
3:53 am 03:53 Clear 52 11.1 26 -3.3 37 37 NW 8 13 30.42 1030 10 16.0934 0 0
4:53 am 04:53 Clear 50 10 26 -3.3 39 39 NW 6 9 30.43 1031 10 16.0934 0 0
5:53 am 05:53 Clear 49 9.4 27 -2.8 43 43 NW 5 7 30.44 1031 10 16.0934 0 0
6:53 am 06:53 Sunny 48 8.9 26 -3.3 42 42 Calm 30.45 1031 10 16.0934 0 0
7:53 am 07:53 Sunny 52 11.1 26 -3.3 37 37 Calm 30.45 1031 10 16.0934 0 0
8:53 am 08:53 Sunny 54 12.2 27 -2.8 35 35 Calm 30.44 1031 10 16.0934 0 0
9:53 am 09:53 Sunny 58 14.4 27 -2.8 31 31 SSE 5 7 30.44 1031 10 16.0934 0 0
10:53 am 10:53 Sunny 63 17.2 27 -2.8 26 26 Calm 30.4 1029 10 16.0934 0 0
11:53 am 11:53 Sunny 64 17.8 25 -3.9 23 23 Calm 30.36 1028 10 16.0934 0 0
12:53 pm 12:53 Sunny 67 19.4 24 -4.4 20 20 Calm 30.34 1028 10 16.0934 0 0
1:53 pm 13:53 Sunny 69 20.6 24 -4.4 18 18 Calm 30.31 1026 10 16.0934 0 0
2:53 pm 14:53 Sunny 69 20.6 23 -5 17 17 SE 5 7 30.29 1026 10 16.0934 0 0
3:53 pm 15:53 Sunny 70 21.1 23 -5 17 17 Calm 30.29 1026 10 16.0934 0 0
4:53 pm 16:53 Sunny 68 20 23 -5 18 18 W 3 6 30.28 1026 10 16.0934 0 0
5:53 pm 17:53 Clear 65 18.3 25 -3.9 22 22 W 3 6 30.29 1026 10 16.0934 0 0
6:53 pm 18:53 Clear 60 15.6 28 -2.2 30 30 NW 6 9 30.3 1026 10 16.0934 0 0
7:53 pm 19:53 Clear 57 13.9 29 -1.7 34 34 NNW 7 11 30.29 1026 10 16.0934 0 0
8:53 pm 20:53 Clear 54 12.2 28 -2.2 37 37 NW 6 9 30.28 1026 10 16.0934 0 0
9:53 pm 21:53 Clear 54 12.2 28 -2.2 37 37 WNW 5 7 30.28 1025 10 16.0934 0 0
10:53 pm 22:53 Clear 52 11.1 29 -1.7 41 41 NW 3 6 30.27 1025 10 16.0934 0 0
11:53 pm 23:53 Clear 50 10 28 -2.2 43 43 NNW 6 9 30.27 1025 10 16.0934 0 0

Powered by AerisWeather